Jefferson, NC

9:39 PM EDT on April 30, 2017 (GMT -0400)
Ashe County

Weather History for KGEV - January, 2012

Change the Weather History Date:

Thursday, January 5, 2012

  Actual Average Record
Temperature  
Mean Temperature 37 °F -  
Max Temperature 42 °F 43 °F 64 °F (2005)
Min Temperature 32 °F 23 °F -1 °F (1981)
Degree Days  
Heating Degree Days 28    
Moisture  
Dew Point 17 °F    
Average Humidity 47    
Maximum Humidity 69    
Minimum Humidity 29    
Precipitation  
Precipitation 0.00 in - - ()
Sea Level Pressure  
Sea Level Pressure 30.00 in    
Wind  
Wind Speed 20 mph (WNW)    
Max Wind Speed 36 mph    
Max Gust Speed 58 mph    
Visibility 10 miles    
Events      
Averages and records for this station are not official NWS values.
T = Trace of Precipitation, MM = Missing Value Source: NWS Daily Summary

Daily Weather History Graph

Daily Weather History Graph

Search for Another Location

Airport or City:

Trip Planner

Search our weather history database for the weather conditions in past years. The results will help you decide how hot, cold, wet, or windy it might be!

Date:

Astronomy

Jan. 05, 2012 Rise Set
Actual Time 7:37 AM EST 5:24 PM EST
Civil Twilight 7:09 AM EST 5:52 PM EST
Nautical Twilight 6:37 AM EST 6:24 PM EST
Astronomical Twilight 6:05 AM EST 6:56 PM EST
Moon 2:27 PM EST (1/5) 4:21 AM EST (1/5)
Length of Visible Light 10h 43m
Length of Day
9h 46m
Waxing Gibbous, 87% of the Moon is Illuminated
Jan 5
Waxing Gibbous
Jan 9
Full
Jan 16
Last Quarter
Jan 23
New
Jan 30
First Quarter

Hourly Weather History & Observations

Time (EST) Temp. Windchill Dew Point Humidity Pressure Visibility Wind Dir Wind Speed Gust Speed Precip Events Conditions
12:15 AM 33.8 °F 21.0 °F 14.0 °F 44% 29.94 in 10.0 mi WNW 25.3 mph 48.3 mph N/A   Clear
12:35 AM 33.8 °F 22.2 °F 15.8 °F 48% 29.94 in 10.0 mi WNW 20.7 mph 31.1 mph N/A   Clear
12:55 AM 33.8 °F 21.9 °F 17.6 °F 52% 29.94 in 10.0 mi WNW 21.9 mph 35.7 mph N/A   Clear
1:15 AM 33.8 °F 20.3 °F 17.6 °F 52% 29.93 in 10.0 mi WNW 28.8 mph 42.6 mph N/A   Clear
1:35 AM 33.8 °F 22.2 °F 17.6 °F 52% 29.92 in 10.0 mi WNW 20.7 mph 32.2 mph N/A   Clear
1:55 AM 33.8 °F 21.3 °F 19.4 °F 56% 29.92 in 10.0 mi WNW 24.2 mph 41.4 mph N/A   Clear
2:15 AM 33.8 °F 20.5 °F 19.4 °F 56% 29.91 in 10.0 mi WNW 27.6 mph 48.3 mph N/A   Clear
2:35 AM 33.8 °F 22.2 °F 19.4 °F 56% 29.93 in 10.0 mi NW 20.7 mph 51.8 mph N/A   Clear
2:55 AM 33.8 °F 19.9 °F 21.2 °F 60% 29.91 in 10.0 mi WNW 31.1 mph 52.9 mph N/A   Clear
3:15 AM 33.8 °F 20.8 °F 21.2 °F 60% 29.91 in 10.0 mi WNW 26.5 mph 50.6 mph N/A   Scattered Clouds
3:35 AM 33.8 °F 19.4 °F 21.2 °F 60% 29.90 in 7.0 mi WNW 33.4 mph 50.6 mph N/A   Scattered Clouds
3:55 AM 33.8 °F 19.0 °F 21.2 °F 60% 29.90 in 7.0 mi WNW 35.7 mph 57.5 mph N/A   Clear
4:15 AM 32.0 °F 17.9 °F 21.2 °F 64% 29.92 in 10.0 mi WNW 28.8 mph 48.3 mph N/A   Clear
4:35 AM 32.0 °F 19.2 °F 21.2 °F 64% 29.94 in 10.0 mi NW 23.0 mph 36.8 mph N/A   Clear
4:55 AM 32.0 °F 20.1 °F 23.0 °F 69% 29.95 in 10.0 mi WNW 19.6 mph 38.0 mph N/A   Clear
5:15 AM 32.0 °F 20.8 °F 23.0 °F 69% 29.95 in 10.0 mi WNW 17.3 mph 33.4 mph N/A   Clear
5:35 AM 32.0 °F 18.9 °F 23.0 °F 69% 29.95 in 10.0 mi WNW 24.2 mph 39.1 mph N/A   Clear
6:15 AM 32.0 °F 20.8 °F 23.0 °F 69% 29.96 in 10.0 mi WNW 17.3 mph 31.1 mph N/A   Clear
6:35 AM 32.0 °F 19.2 °F 23.0 °F 69% 29.95 in 10.0 mi NW 23.0 mph 41.4 mph N/A   Clear
6:55 AM 32.0 °F 18.1 °F 23.0 °F 69% 29.95 in 10.0 mi NW 27.6 mph 39.1 mph N/A   Clear
7:15 AM 32.0 °F 18.4 °F 23.0 °F 69% 29.96 in 10.0 mi NW 26.5 mph 42.6 mph N/A   Clear
7:35 AM 32.0 °F 18.6 °F 23.0 °F 69% 29.97 in 10.0 mi NW 25.3 mph 42.6 mph N/A   Clear
7:55 AM 32.0 °F 19.2 °F 23.0 °F 69% 29.97 in 10.0 mi NW 23.0 mph 39.1 mph N/A   Clear
8:15 AM 32.0 °F 20.1 °F 23.0 °F 69% 29.98 in 10.0 mi NW 19.6 mph 35.7 mph N/A   Clear
8:35 AM 32.0 °F 17.4 °F 23.0 °F 69% 29.98 in 10.0 mi WNW 31.1 mph 36.8 mph N/A   Clear
9:15 AM 32.0 °F 18.6 °F 21.2 °F 64% 30.01 in 10.0 mi WNW 25.3 mph 34.5 mph N/A   Clear
9:35 AM 33.8 °F 22.8 °F 21.2 °F 60% 30.02 in 10.0 mi NW 18.4 mph 32.2 mph N/A   Clear
9:55 AM 33.8 °F 23.2 °F 19.4 °F 56% 30.03 in 10.0 mi NW 17.3 mph 32.2 mph N/A   Clear
10:15 AM 35.6 °F 26.2 °F 17.6 °F 48% 30.04 in 10.0 mi NW 15.0 mph 28.8 mph N/A   Clear
10:35 AM 35.6 °F 26.6 °F 17.6 °F 48% 30.05 in 10.0 mi NW 13.8 mph 24.2 mph N/A   Clear
10:55 AM 35.6 °F 25.9 °F 17.6 °F 48% 30.05 in 10.0 mi WNW 16.1 mph 20.7 mph N/A   Clear
11:15 AM 37.4 °F 30.3 °F 14.0 °F 38% 30.05 in 10.0 mi WNW 10.4 mph 21.9 mph N/A   Clear
11:35 AM 37.4 °F 32.1 °F 14.0 °F 38% 30.05 in 10.0 mi WNW 6.9 mph 17.3 mph N/A   Clear
11:55 AM 39.2 °F 34.2 °F 14.0 °F 36% 30.04 in 10.0 mi West 6.9 mph - N/A   Clear
12:15 PM 41.0 °F 38.0 °F 12.2 °F 31% 30.04 in 10.0 mi NW 4.6 mph - N/A   Clear
12:35 PM 41.0 °F 39.0 °F 12.2 °F 31% 30.04 in 10.0 mi West 3.5 mph - N/A   Clear
12:55 PM 42.8 °F 38.0 °F 14.0 °F 31% 30.03 in 10.0 mi WNW 8.1 mph - N/A   Clear
1:15 PM 42.8 °F 38.0 °F 12.2 °F 29% 30.03 in 10.0 mi West 8.1 mph - N/A   Clear
1:35 PM 42.8 °F 37.5 °F 14.0 °F 31% 30.03 in 10.0 mi West 9.2 mph - N/A   Clear
1:55 PM 42.8 °F 37.5 °F 14.0 °F 31% 30.03 in 10.0 mi West 9.2 mph - N/A   Clear
2:15 PM 42.8 °F 37.0 °F 15.8 °F 34% 30.03 in 10.0 mi WNW 10.4 mph 16.1 mph N/A   Clear
2:35 PM 42.8 °F 38.0 °F 15.8 °F 34% 30.03 in 10.0 mi West 8.1 mph - N/A   Clear
2:55 PM 42.8 °F 38.0 °F 17.6 °F 36% 30.03 in 10.0 mi West 8.1 mph 16.1 mph N/A   Clear
3:15 PM 42.8 °F 36.6 °F 17.6 °F 36% 30.03 in 10.0 mi WNW 11.5 mph - N/A   Clear
3:35 PM 42.8 °F 36.6 °F 17.6 °F 36% 30.03 in 10.0 mi WNW 11.5 mph 17.3 mph N/A   Clear
3:55 PM 42.8 °F 35.8 °F 17.6 °F 36% 30.03 in 10.0 mi WNW 13.8 mph 19.6 mph N/A   Clear
4:15 PM 42.8 °F 36.2 °F 17.6 °F 36% 30.03 in 10.0 mi West 12.7 mph 16.1 mph N/A   Clear
4:35 PM 42.8 °F 37.5 °F 15.8 °F 34% 30.03 in 10.0 mi WNW 9.2 mph 18.4 mph N/A   Clear
4:55 PM 42.8 °F 38.6 °F 15.8 °F 34% 30.03 in 10.0 mi West 6.9 mph 16.1 mph N/A   Clear
5:15 PM 42.8 °F 37.5 °F 15.8 °F 34% 30.03 in 10.0 mi West 9.2 mph - N/A   Clear
5:35 PM 41.0 °F 34.7 °F 14.0 °F 33% 30.04 in 10.0 mi WNW 10.4 mph - N/A   Clear
5:55 PM 41.0 °F 34.7 °F 14.0 °F 33% 30.04 in 10.0 mi WNW 10.4 mph - N/A   Clear
6:15 PM 39.2 °F 34.2 °F 15.8 °F 39% 30.04 in 10.0 mi West 6.9 mph - N/A   Clear
6:35 PM 39.2 °F 32.5 °F 15.8 °F 39% 30.04 in 10.0 mi West 10.4 mph - N/A   Clear
7:15 PM 39.2 °F 32.5 °F 14.0 °F 36% 30.04 in 10.0 mi West 10.4 mph 16.1 mph N/A   Clear
7:35 PM 41.0 °F 34.7 °F 12.2 °F 31% 30.04 in 10.0 mi West 10.4 mph 18.4 mph N/A   Clear
7:55 PM 39.2 °F 32.0 °F 12.2 °F 33% 30.04 in 10.0 mi West 11.5 mph 16.1 mph N/A   Clear
8:15 PM 39.2 °F 32.0 °F 12.2 °F 33% 30.05 in 10.0 mi West 11.5 mph - N/A   Clear
8:35 PM 39.2 °F 32.5 °F 12.2 °F 33% 30.05 in 10.0 mi West 10.4 mph - N/A   Clear
8:55 PM 39.2 °F 32.0 °F 12.2 °F 33% 30.04 in 10.0 mi WNW 11.5 mph - N/A   Clear
9:15 PM 39.2 °F 32.5 °F 12.2 °F 33% 30.04 in 10.0 mi West 10.4 mph - N/A   Clear
9:35 PM 39.2 °F 32.5 °F 14.0 °F 36% 30.05 in 10.0 mi WNW 10.4 mph - N/A   Clear
9:55 PM 41.0 °F 35.2 °F 14.0 °F 33% 30.04 in 10.0 mi WNW 9.2 mph - N/A   Clear
10:15 PM 41.0 °F 35.8 °F 14.0 °F 33% 30.04 in 10.0 mi West 8.1 mph 16.1 mph N/A   Clear
10:35 PM 41.0 °F 35.8 °F 14.0 °F 33% 30.04 in 10.0 mi WNW 8.1 mph - N/A   Clear
10:55 PM 41.0 °F 34.3 °F 14.0 °F 33% 30.03 in 10.0 mi WNW 11.5 mph - N/A   Clear
11:15 PM 41.0 °F 34.7 °F 14.0 °F 33% 30.03 in 10.0 mi WNW 10.4 mph 16.1 mph N/A   Clear
11:35 PM 41.0 °F 33.9 °F 14.0 °F 33% 30.02 in 10.0 mi West 12.7 mph 17.3 mph N/A   Clear
11:55 PM 41.0 °F 33.5 °F 14.0 °F 33% 30.02 in 10.0 mi West 13.8 mph 23.0 mph N/A   Clear